COSMOS 2168

导读

COSMOS 2168是苏联解体前夕,独立国家联合体(CIS)于1991年11月12日发射的军用卫星,隶属于俄罗斯/苏联“宇宙”系列卫星。该系列承担侦察、导航、技术试验等多种军事航天任务,作为冷战末期发射的航天器,它延续了苏联空间军事化应用布局,在近地轨道执行既定任务,是那个特殊时期航天活动的重要见证,目前已完成服役使命退出轨道运行。

Basic Information
目录编号:
21782
目录名称:
COSMOS 2168
国际标识:
1991-077D
轨道中心:
EARTH
卫星名称:
COSMOS 2168
卫星全名:
--
卫星状态:
在轨 (已飞行12723 天)
发射日期:
1991-11-12 UTC
国别 :
俄罗斯(独联体) (CIS)
星等 :
--
This satellite is enrolled in the Space Conjunction Data Service (SCDS) and the current flight risk assessment level is: No High Risk
Orbit Information
数据来源 国际轨道数据
星历时间: 2026-09-12T02:50:22+0800
12小时前
查看轨道信息
半长轴: 7778.327km
偏心率: 0.0013118
轨道倾角: 82.600°
近地点辐角 182.779°
升交点赤经 157.455°
平近点角 231.866°
近地点: 1389.986km
远地点: 1410.394km
周期: 113.786分钟
每日圈数: 12.655332
Detailed Information
使用方式:
暂无
2D Orbit Map
3D Orbit Map
Orbit Altitude Analysis Chart
Orbit Inclination Analysis Chart
Orbit Comprehensive Analysis Chart
View Comprehensive Chart
Conjunction Data List
Event ID Objects TCA Miss Dist (km) Collision Risk Probability Collision Risk Index (CRI) Action
CDM_260913-214302-178202-596123
2026-09-13T
21:43:39+0000
1.487 km
极远距离
6.371452E-6 低风险 0.51
CDM_260913-162002-178202-379325
2026-09-13T
16:20:41+0000
1.759 km
极远距离
3.940065E-6 低风险 0.47
Miss Distance Evolution Trend with All Objects
Collision Probability Evolution Trend with All Objects